Weather History for Presque Isle, ME

Change the Weather History Date:

Thursday, February 27, 2014

  Actual Average Record
Temperature  
Mean Temperature 0 °F -  
Max Temperature 15 °F 29 °F 46 °F (2009)
Min Temperature -16 °F 7 °F -27 °F (2003)
Degree Days  
Heating Degree Days 66    
Moisture  
Dew Point -8 °F    
Average Humidity 62    
Maximum Humidity 100    
Minimum Humidity 23    
Precipitation  
Precipitation 0.00 in - - ()
Sea Level Pressure  
Sea Level Pressure 29.66 in    
Wind  
Wind Speed 2 mph (SE)    
Max Wind Speed 13 mph    
Max Gust Speed 16 mph    
Visibility 10 miles    
Events      
Averages and records for this station are not official NWS values.
T = Trace of Precipitation, MM = Missing Value Source: NWS Daily Summary

Daily Weather History Graph

Daily Weather History Graph

Search for Another Location

Airport:

Trip Planner

Search our weather history database for the weather conditions in past years. The results will help you decide how hot, cold, wet, or windy it might be!

Date:

Astronomy

Feb. 27, 2014 Rise Set
Actual Time 6:15 AM EST 5:15 PM EST
Civil Twilight 5:45 AM EST 5:45 PM EST
Nautical Twilight 5:10 AM EST 6:20 PM EST
Astronomical Twilight 4:34 AM EST 6:55 PM EST
Moon 4:50 AM EST (2/27) 3:32 PM EST (2/27)
Length of Visible Light 12h 00m
Length of Day
10h 59m
Waning Crescent, 4% of the Moon is Illuminated
Feb 27
Waning Crescent
Mar 1
New
Mar 8
First Quarter
Mar 16
Full
Mar 23
Last Quarter

Hourly Weather History & Observations

Time (EST) Temp. Windchill Dew Point Humidity Pressure Visibility Wind Dir Wind Speed Gust Speed Precip Events Conditions
12:15 AM 1.4 °F -8.3 °F -7.6 °F 66% 29.75 in 10.0 mi South 4.6 mph - N/A   Clear
12:35 AM 1.4 °F - -5.8 °F 72% 29.76 in 10.0 mi Calm Calm - N/A   Clear
12:55 AM -2.2 °F - -11.2 °F 66% 29.75 in 10.0 mi Calm Calm - N/A   Clear
1:15 AM -2.2 °F - -5.8 °F 85% 29.75 in 10.0 mi Calm Calm - N/A   Clear
1:35 AM -2.2 °F - -5.8 °F 85% 29.74 in 10.0 mi Calm Calm - N/A   Clear
1:55 AM -5.8 °F - -20.2 °F 50% 29.73 in 10.0 mi Calm Calm - N/A   Clear
2:15 AM -5.8 °F -14.5 °F -14.8 °F 65% 29.73 in 10.0 mi SSW 3.5 mph - N/A   Clear
2:35 AM -7.6 °F -16.5 °F -20.2 °F 54% 29.73 in 10.0 mi SSW 3.5 mph - N/A   Clear
2:55 AM -9.4 °F - -29.2 °F 37% 29.72 in 10.0 mi Calm Calm - N/A   Clear
3:15 AM -9.4 °F - -9.4 °F 100% 29.72 in 10.0 mi Calm Calm - N/A   Clear
3:35 AM -9.4 °F - - N/A% 29.72 in 10.0 mi Calm Calm - N/A   Clear
3:55 AM -11.2 °F - - N/A% 29.73 in 10.0 mi Calm Calm - N/A   Clear
4:15 AM -9.4 °F - - N/A% 29.72 in 10.0 mi Calm Calm - N/A   Clear
4:35 AM -11.2 °F - -29.2 °F 41% 29.73 in 10.0 mi Calm Calm - N/A   Clear
4:55 AM -11.2 °F - -23.8 °F 54% 29.74 in 10.0 mi Calm Calm - N/A   Clear
5:15 AM -11.2 °F - -20.2 °F 64% 29.74 in 10.0 mi Calm Calm - N/A   Clear
5:35 AM -13.0 °F - -27.4 °F 49% 29.73 in 10.0 mi Calm Calm - N/A   Clear
5:55 AM -13.0 °F - -18.4 °F 77% 29.73 in 10.0 mi Calm Calm - N/A   Clear
6:15 AM -13.0 °F - - N/A% 29.73 in 10.0 mi Calm Calm - N/A   Clear
6:35 AM -16.6 °F - -18.4 °F 92% 29.73 in 10.0 mi Calm Calm - N/A   Clear
6:55 AM -13.0 °F - - N/A% 29.73 in 10.0 mi Calm Calm - N/A   Clear
7:15 AM -11.2 °F - - N/A% 29.73 in 10.0 mi Calm Calm - N/A   Clear
7:35 AM -7.6 °F - - N/A% 29.73 in 10.0 mi Calm Calm - N/A   Clear
7:55 AM -7.6 °F - -23.8 °F 45% 29.73 in 8.0 mi Calm Calm - N/A   Clear
8:15 AM -5.8 °F - -16.6 °F 60% 29.73 in 9.0 mi Calm Calm - N/A   Clear
8:35 AM -0.4 °F - -0.4 °F 100% 29.72 in 10.0 mi Calm Calm - N/A   Clear
8:55 AM 1.4 °F - -25.6 °F 27% 29.72 in 10.0 mi Calm Calm - N/A   Clear
9:15 AM 1.4 °F - -29.2 °F 23% 29.71 in 10.0 mi Calm Calm - N/A   Clear
9:35 AM 3.2 °F -4.2 °F -20.2 °F 33% 29.70 in 10.0 mi NE 3.5 mph - N/A   Mostly Cloudy
9:55 AM 6.8 °F - -9.4 °F 48% 29.70 in 10.0 mi Calm Calm - N/A   Mostly Cloudy
10:15 AM 8.6 °F - -9.4 °F 44% 29.69 in 10.0 mi Calm Calm - N/A   Mostly Cloudy
10:35 AM 8.6 °F - -9.4 °F 44% 29.68 in 10.0 mi Calm Calm - N/A   Overcast
10:55 AM 8.6 °F - -7.6 °F 48% 29.68 in 10.0 mi Calm Calm - N/A   Mostly Cloudy
11:15 AM 10.4 °F 4.0 °F -9.4 °F 41% 29.67 in 10.0 mi NE 3.5 mph - N/A   Partly Cloudy
11:35 AM 10.4 °F -0.4 °F -4.0 °F 52% 29.66 in 10.0 mi NE 6.9 mph - N/A   Mostly Cloudy
11:55 AM 12.2 °F 0.7 °F -9.4 °F 38% 29.64 in 10.0 mi NE 8.1 mph - N/A   Scattered Clouds
12:15 PM 12.2 °F 2.9 °F -5.8 °F 45% 29.64 in 10.0 mi ENE 5.8 mph - N/A   Clear
12:35 PM 12.2 °F 2.9 °F -7.6 °F 41% 29.63 in 10.0 mi ESE 5.8 mph - N/A   Mostly Cloudy
12:55 PM 12.2 °F 0.7 °F -11.2 °F 34% 29.62 in 10.0 mi ESE 8.1 mph - N/A   Overcast
1:15 PM 12.2 °F -0.2 °F -7.6 °F 41% 29.61 in 10.0 mi East 9.2 mph - N/A   Overcast
1:35 PM 14.0 °F 2.0 °F -5.8 °F 41% 29.60 in 10.0 mi SE 9.2 mph - N/A   Overcast
1:55 PM 12.2 °F -2.5 °F -2.2 °F 53% 29.60 in 10.0 mi SE 12.7 mph - N/A   Overcast
2:15 PM 14.0 °F 2.0 °F -11.2 °F 32% 29.60 in 10.0 mi SE 9.2 mph - N/A   Overcast
2:35 PM 14.0 °F 2.0 °F 1.4 °F 57% 29.60 in 10.0 mi SE 9.2 mph 16.1 mph N/A   Overcast
2:55 PM 14.0 °F 0.5 °F -0.4 °F 53% 29.59 in 10.0 mi SSE 11.5 mph - N/A   Overcast
3:15 PM 15.8 °F 3.4 °F -2.2 °F 45% 29.60 in 10.0 mi SSW 10.4 mph - N/A   Overcast
3:35 PM 15.8 °F 4.2 °F -2.2 °F 45% 29.59 in 10.0 mi South 9.2 mph - N/A   Mostly Cloudy
3:55 PM 15.8 °F 5.1 °F -0.4 °F 49% 29.60 in 10.0 mi South 8.1 mph - N/A   Overcast
4:15 PM 12.2 °F 0.7 °F 3.2 °F 67% 29.59 in 10.0 mi SE 8.1 mph - N/A   Overcast
4:35 PM 12.2 °F 1.7 °F 3.2 °F 67% 29.59 in 10.0 mi SE 6.9 mph - N/A   Mostly Cloudy
4:55 PM 12.2 °F 2.9 °F 3.2 °F 67% 29.59 in 10.0 mi SE 5.8 mph - N/A   Partly Cloudy
5:15 PM 12.2 °F - 3.2 °F 67% 29.59 in 10.0 mi Calm Calm - N/A   Partly Cloudy
5:35 PM 12.2 °F - 3.2 °F 67% 29.60 in 10.0 mi Calm Calm - N/A   Partly Cloudy
5:55 PM 10.4 °F - 1.4 °F 67% 29.60 in 10.0 mi Calm Calm - N/A   Scattered Clouds
6:15 PM 10.4 °F - 3.2 °F 73% 29.61 in 10.0 mi Calm Calm - N/A   Mostly Cloudy
6:35 PM 8.6 °F - 3.2 °F 79% 29.61 in 10.0 mi Calm Calm - N/A   Overcast
6:55 PM 6.8 °F - -0.4 °F 72% 29.61 in 10.0 mi Calm Calm - N/A   Overcast
7:15 PM 6.8 °F - 1.4 °F 79% 29.61 in 10.0 mi Calm Calm - N/A   Overcast
7:35 PM 6.8 °F - 1.4 °F 79% 29.61 in 10.0 mi Calm Calm - N/A   Mostly Cloudy
7:55 PM 3.2 °F - -0.4 °F 85% 29.60 in 10.0 mi Calm Calm - N/A   Mostly Cloudy
8:15 PM 3.2 °F - -0.4 °F 85% 29.60 in 10.0 mi Calm Calm - N/A   Scattered Clouds
8:35 PM 3.2 °F - -0.4 °F 85% 29.60 in 10.0 mi Calm Calm - N/A   Partly Cloudy
8:55 PM 1.4 °F - -2.2 °F 85% 29.60 in 10.0 mi Calm Calm - N/A   Clear
9:15 PM -0.4 °F - -2.2 °F 92% 29.60 in 10.0 mi Calm Calm - N/A   Clear
9:35 PM 1.4 °F - -2.2 °F 85% 29.60 in 10.0 mi Calm Calm - N/A   Clear
9:55 PM -0.4 °F - -9.4 °F 66% 29.60 in 10.0 mi Calm Calm - N/A   Clear
10:15 PM -0.4 °F - -7.6 °F 72% 29.60 in 10.0 mi Calm Calm - N/A   Clear
10:35 PM -5.8 °F - -11.2 °F 77% 29.61 in 10.0 mi Calm Calm - N/A   Clear
10:55 PM -5.8 °F - -5.8 °F 100% 29.61 in 10.0 mi Calm Calm - N/A   Clear
11:15 PM -5.8 °F - -11.2 °F 77% 29.61 in 10.0 mi Calm Calm - N/A   Clear
11:35 PM -4.0 °F - -13.0 °F 65% 29.62 in 10.0 mi Calm Calm - N/A   Clear
11:55 PM -7.6 °F - - N/A% 29.63 in 10.0 mi Calm Calm - N/A   Clear